Regional Weather Roundup
Issued by NWS

Home | Current Version | Previous Version | Text Only | Print | Product List | Glossary Off
Versions: 1 2 3 4 5 6 7 8 9 10 11 12 13 14 15 16 17 18 19 20 21 22 23 24 25 26 27 28

000
ASUS45 KCYS 271010
RWRWY

WYOMING REGIONAL WEATHER ROUNDUP
NATIONAL WEATHER SERVICE CHEYENNE WY
400 AM MDT WED JUL 27 2016

NOTE:  "FAIR" INDICATES FEW OR NO CLOUDS BELOW 12,000 FEET
WITH NO SIGNIFICANT WEATHER AND/OR OBSTRUCTIONS TO VISIBILITY.

WYZ001-271100-
YELLOWSTONE NATIONAL PARK

CITY           SKY/WX    TMP DP  RH WIND       PRES   REMARKS
LK YELLOWSTONE   N/A     47  38  71 CALM      30.38R
W YELLOWSTONE  NOT AVBL

$$
WYZ002>013-054>058-071-098>099-271100-
NORTHERN WYOMING

CITY           SKY/WX    TMP DP  RH WIND       PRES   REMARKS
JACKSON        FAIR      50  36  57 N5        30.26R
CODY           FAIR      63  45  51 NE14      30.19R
GREYBULL       FAIR      67  47  48 CALM      30.08R
WORLAND        FAIR      63  51  65 CALM      30.10S
SHERIDAN       FAIR      66  50  56 S5        30.09R
BUFFALO        FAIR      64  50  60 W10       30.15R
GILLETTE       MOCLDY    66  56  70 S18G29    30.12R
HULETT         FAIR      63  59  88 CALM      30.15F
NEWCASTLE      FAIR      63  54  72 NW10G22   30.18R

$$
WYZ014>020-022>026-101>103-271100-
CENTRAL WYOMING

CITY           SKY/WX    TMP DP  RH WIND       PRES   REMARKS
BIG PINEY      FAIR      50  29  44 E7        30.29R
PINEDALE       FAIR      45  34  65 N3        30.29S
DUBOIS         CLOUDY    48  32  53 W12       30.31S HAZE
LANDER         FAIR      67  42  40 W6        30.17S
RIVERTON       FAIR      65  42  43 NE5       30.18S
CASPER         FAIR      63  53  70 SE13      30.18R
DOUGLAS          N/A    N/A N/A N/A MISG      30.24R

$$
WYZ021-027>030-104>119-271100-
SOUTHERN WYOMING

CITY           SKY/WX    TMP DP  RH WIND       PRES   REMARKS
EVANSTON       FAIR      61  20  20 SE7       30.30S
KEMMERER         N/A     54  32  43 N9        30.30S
FORT BRIDGER   FAIR      65  24  21 W10       30.31R
ROCK SPRINGS   FAIR      61  32  33 E3        30.26R
DIXON          FAIR      52  41  65 SE3       30.28R
RAWLINS        FAIR      58  36  43 SE6       30.26F
SARATOGA       FAIR      55  37  50 NW6G28    30.30R
LARAMIE        FAIR      54  35  48 SE9       30.28S
CHEYENNE       FAIR      57  45  64 NW5       30.22R
TORRINGTON     FAIR      60  58  92 NE9       30.11R
PINE BLUFFS    FAIR      52  46  82 S8        30.16S

$$




USA.gov is the U.S. government's official web portal to all federal, state and local government web resources and services.